Theta_e
343 354 360 361 362 363 365 365 364 363 362 362 361 361 360 359 358 356 354 354 353 350 346 345 343 341 339 337 336 336 336 336 335 335 339 346 350 353 355 354 354 349 354
345 354 359 358 361 363 364 364 364 363 362 362 362 361 360 358 356 355 353 352 351 346 343 341 339 338 337 336 334 334 333 332 330 329 330 332 345 349 352 351 352 352 354
346 352 354 358 360 362 363 363 363 362 362 362 361 360 359 357 355 353 352 350 347 343 340 338 336 335 335 335 336 335 335 334 334 334 332 325 333 348 351 353 351 352 351
346 349 349 357 359 362 362 362 361 362 362 362 361 360 358 357 355 352 349 346 344 341 339 336 335 335 337 337 337 337 336 336 338 340 334 331 324 349 348 349 351 349 350
345 346 349 357 358 361 362 361 360 361 361 361 360 359 357 356 354 352 349 347 343 341 338 336 336 337 338 338 338 337 338 340 343 343 335 332 335 346 347 346 348 350 351
342 346 355 356 356 359 361 361 360 360 361 361 360 358 356 355 354 351 349 347 345 340 339 339 340 340 340 340 340 341 343 344 344 341 340 336 332 348 345 345 346 346 349
338 347 353 356 356 356 359 359 359 359 359 359 359 358 356 355 353 351 349 346 345 344 342 342 344 344 344 344 343 344 342 344 342 339 337 336 335 345 344 343 345 346 348
339 349 351 357 357 355 355 357 357 357 357 357 357 356 355 354 352 350 349 347 346 347 346 346 346 345 346 346 346 347 346 347 343 338 334 334 339 345 342 343 344 348 350
344 347 347 352 355 357 355 354 353 354 354 354 354 353 353 352 351 350 348 347 347 347 347 347 347 347 347 347 347 348 346 344 337 335 334 335 345 347 342 343 345 349 351
347 347 347 347 350 351 351 355 353 353 352 351 352 352 352 352 350 349 346 346 347 347 347 347 347 347 348 347 348 348 347 345 337 336 333 336 347 345 343 344 346 350 353
347 346 346 345 346 346 347 351 353 353 353 352 351 351 349 343 343 342 344 345 347 347 348 348 348 348 348 348 347 347 348 337 336 334 333 347 348 346 344 344 345 348 351
343 346 345 344 343 340 344 345 346 346 346 345 344 343 341 336 335 340 342 346 346 347 348 348 348 348 347 340 340 345 342 338 335 333 334 348 348 346 343 343 343 346 348
341 348 348 345 343 338 338 341 345 344 343 342 339 338 338 338 334 338 332 338 336 344 339 343 343 343 340 338 337 336 339 338 335 334 341 348 349 347 344 342 342 343 345
335 345 348 345 341 338 337 342 342 340 340 340 340 338 338 335 333 329 331 331 332 336 335 334 336 338 336 336 337 335 338 337 336 332 341 349 348 347 343 342 342 342 344
332 339 341 347 343 341 339 343 342 340 340 338 339 339 338 336 332 331 329 330 330 334 334 332 333 335 335 336 337 337 338 337 334 333 338 348 346 345 343 341 342 342 342
329 332 333 333 347 345 344 344 343 343 342 341 341 340 338 337 333 331 330 331 331 333 334 332 331 333 335 336 336 337 337 334 334 333 334 339 344 344 345 342 341 341 342
329 330 334 341 346 348 347 347 350 346 345 343 342 341 339 336 336 333 332 332 332 333 331 333 330 332 335 337 337 338 337 335 334 333 336 335 337 344 345 345 345 344 343
329 328 337 348 351 350 348 347 347 348 347 345 345 344 342 339 337 336 335 332 333 332 332 332 331 330 332 336 335 335 336 335 334 333 333 334 334 337 342 345 344 344 343
328 329 332 340 351 351 351 350 348 346 344 344 344 345 346 342 339 340 336 336 333 333 333 332 332 331 329 330 331 330 333 332 333 335 335 335 338 337 334 339 343 343 343
325 325 330 332 346 350 352 348 346 345 345 345 344 344 346 345 343 338 340 337 336 335 331 331 329 330 328 331 331 329 332 333 332 333 332 334 334 335 336 333 334 336 341
328 333 332 332 336 344 341 340 338 338 336 338 340 341 344 348 344 342 340 339 339 335 332 331 329 327 328 328 326 327 330 332 331 331 330 330 332 333 333 332 332 332 335
324 332 332 331 333 339 339 335 332 331 332 333 337 341 343 347 347 343 341 340 337 336 332 332 331 327 327 326 322 324 319 322 327 328 329 330 329 332 333 333 332 332 332
326 332 332 332 333 334 334 333 332 332 331 335 336 338 342 346 346 345 341 340 338 336 334 332 330 326 323 324 330 324 319 317 319 323 324 325 328 329 329 330 332 334 332
326 330 330 332 333 335 335 330 331 330 329 328 336 340 342 345 345 344 342 340 340 338 334 333 332 328 327 324 328 330 328 326 314 312 321 324 327 327 327 326 328 330 332
324 324 330 333 332 331 334 333 332 329 331 333 338 340 340 341 343 343 341 339 339 340 338 334 331 329 329 328 326 328 326 322 320 316 311 317 322 324 325 325 326 328 329
313 319 319 328 331 330 332 335 332 332 333 335 339 338 337 337 339 342 343 342 340 339 338 334 333 331 331 330 330 326 322 321 318 317 313 314 315 318 324 323 323 324 330
Wind_Speed
10 17 22 22 20 19 17 16 15 14 13 12 12 13 13 13 13 14 14 12 12 11 10 10 8 8 7 7 7 7 7 6 5 5 4 4 4 5 5 4 4 9 12
19 18 23 23 22 20 19 17 16 15 14 12 12 12 12 12 12 12 12 11 11 10 9 8 8 7 7 6 6 6 5 4 2 2 2 2 1 3 4 5 3 9 11
18 17 19 23 22 21 19 17 16 15 14 14 13 12 12 11 12 13 10 9 9 9 7 7 6 7 6 6 6 5 3 1 2 3 3 2 4 3 3 6 5 8 9
18 15 16 23 23 22 20 18 17 17 16 15 14 13 13 11 10 11 10 9 9 8 8 7 6 5 5 5 5 3 1 2 4 6 3 4 7 7 4 7 6 3 6
15 13 16 22 22 22 20 18 17 17 16 16 15 14 13 12 11 10 10 9 9 9 8 7 6 5 6 5 4 2 1 4 6 7 5 4 8 9 8 6 6 4 5
16 13 20 22 22 22 21 19 17 17 17 16 16 15 14 13 12 11 11 10 9 10 9 9 8 7 6 5 4 2 4 6 8 5 5 2 8 12 11 8 6 4 2
15 12 16 23 22 22 21 21 19 18 17 16 16 16 16 14 13 12 12 11 11 11 11 10 10 9 8 7 6 5 5 7 5 6 5 5 7 13 11 10 7 4 2
18 15 15 20 21 21 20 20 19 18 18 18 17 17 16 15 14 13 13 12 12 12 11 11 11 9 8 7 6 6 6 7 6 6 5 4 8 12 12 10 7 5 5
15 15 14 14 16 19 19 19 18 18 18 18 18 17 17 16 16 15 14 14 13 12 12 12 11 10 9 8 7 7 7 7 5 4 7 2 11 11 11 9 7 5 5
14 14 13 12 11 11 11 17 17 17 17 17 17 17 17 17 16 16 15 15 14 14 13 12 11 10 10 8 8 8 10 10 6 5 4 2 12 12 11 9 6 6 8
14 15 14 13 11 10 9 11 14 16 16 15 15 16 13 7 8 12 12 15 15 14 13 13 12 10 10 9 10 12 13 3 6 5 3 11 13 13 11 9 8 6 9
17 16 17 16 15 12 10 9 8 8 7 7 7 7 6 6 6 10 12 16 16 15 14 14 12 11 10 4 4 12 5 5 5 7 4 15 14 13 12 10 8 7 7
18 14 16 17 16 16 11 8 6 6 5 6 7 7 7 6 6 7 4 7 5 14 6 9 7 5 5 5 5 5 7 6 4 4 6 17 15 13 12 11 10 8 6
10 14 12 14 14 12 8 9 8 8 7 6 9 11 8 6 7 5 6 6 6 6 6 5 4 6 6 7 9 8 8 6 4 3 7 12 11 12 12 12 11 9 8
18 7 5 14 16 15 11 8 9 10 9 9 9 11 10 9 8 8 5 6 7 7 7 7 6 8 8 10 10 11 9 8 7 4 3 16 14 13 13 12 12 12 11
5 10 17 9 10 13 12 11 10 9 10 9 9 11 15 10 9 8 9 7 8 9 8 8 8 9 8 9 11 10 8 7 4 4 4 6 13 13 13 13 12 12 12
7 9 20 7 6 12 15 10 8 9 8 10 10 12 15 13 11 12 9 9 7 9 8 9 8 5 7 9 11 8 7 5 5 4 4 4 5 11 12 14 14 13 12
16 20 28 15 13 10 8 7 6 6 6 7 9 9 14 15 14 12 9 10 6 6 9 7 8 8 8 8 8 5 4 4 5 5 4 4 5 5 9 14 13 12 12
15 12 13 17 19 17 10 7 6 6 5 5 5 7 13 14 15 12 10 7 10 6 7 8 5 8 4 4 5 3 3 4 4 4 5 5 6 6 4 9 11 12 11
11 13 12 9 15 13 9 6 3 4 5 5 7 6 10 12 15 14 8 8 9 9 5 4 5 4 4 4 3 2 4 5 4 5 5 5 5 6 6 6 5 5 12
8 9 11 12 10 10 4 5 4 5 4 3 5 8 8 11 14 13 9 8 7 9 7 6 4 6 2 3 3 2 2 5 6 5 3 3 4 5 6 5 4 3 4
10 11 12 13 11 8 7 4 4 4 4 4 6 9 8 11 13 13 11 7 8 5 6 6 5 3 2 4 4 2 1 5 3 3 3 3 4 3 3 2 4 5 2
9 13 14 14 14 11 10 4 2 2 1 1 3 7 6 10 12 12 10 8 6 5 5 5 6 7 4 2 4 5 3 3 1 3 1 2 3 1 3 2 4 6 5
7 7 10 10 10 9 9 6 8 8 7 6 4 4 5 9 10 11 10 8 6 5 6 5 5 5 5 4 1 3 1 4 3 2 2 2 3 3 5 3 4 4 7
9 7 7 9 11 11 11 11 9 6 5 4 3 7 5 6 8 9 8 7 6 4 5 7 6 6 4 4 3 2 3 2 1 3 3 2 2 2 3 3 4 5 6
9 10 10 10 13 14 14 12 11 10 8 5 4 5 4 4 4 8 9 6 6 5 5 5 6 7 5 4 3 3 4 4 4 3 2 2 2 2 1 3 3 3 5
Wind_Direction
157 153 154 141 137 134 134 135 134 130 128 128 123 118 115 113 114 112 113 114 113 116 116 117 116 112 102 95 93 89 79 63 47 41 40 46 73 81 84 97 122 119 117
145 155 156 144 142 138 139 141 139 136 137 135 130 126 122 123 125 120 122 125 125 126 128 127 129 121 115 110 104 86 77 74 47 342 324 335 256 139 114 102 93 139 129
147 156 155 145 142 139 142 144 143 139 141 139 136 135 132 136 139 133 134 136 133 136 134 133 132 126 120 114 105 97 90 48 300 288 279 264 252 166 130 97 77 142 142
150 154 156 147 144 143 145 148 148 145 146 141 140 142 143 145 148 145 150 150 147 148 147 147 142 134 127 129 117 117 122 292 306 304 306 248 214 154 111 84 78 119 153
150 158 156 149 146 145 146 150 151 149 148 145 147 150 155 156 159 159 165 163 167 164 161 158 153 153 152 154 139 149 256 304 309 311 288 306 124 145 129 94 87 89 154
152 166 156 151 150 150 152 152 155 153 154 153 153 158 164 169 170 170 174 174 180 177 174 172 168 179 184 173 169 208 276 298 309 296 299 238 140 147 135 123 105 87 121
155 161 156 153 156 156 156 156 160 160 159 159 160 167 173 176 176 177 182 185 190 184 187 183 181 188 190 193 200 210 244 281 296 285 291 229 152 149 147 144 132 134 172
152 153 157 156 162 159 160 162 162 165 164 164 168 175 176 178 181 182 188 193 195 192 194 192 192 192 200 206 221 224 247 271 294 304 301 202 180 152 150 144 140 151 198
146 145 157 156 165 160 163 167 168 172 170 171 174 177 179 182 184 186 191 195 198 198 200 200 199 196 204 212 230 241 250 263 267 265 287 159 178 157 151 143 142 151 178
141 146 151 154 160 156 164 170 174 178 178 179 180 184 183 187 187 190 193 198 202 202 203 205 207 202 212 215 230 247 251 256 260 265 279 208 171 163 149 147 146 145 141
152 154 151 156 160 157 159 174 177 185 184 187 189 189 186 185 190 195 196 203 204 205 205 209 211 211 220 223 234 245 250 237 251 254 227 176 170 166 156 160 161 165 160
163 164 161 158 166 161 171 171 171 182 186 186 188 192 182 179 186 194 201 205 208 206 206 212 213 214 225 214 239 248 242 224 242 252 208 177 176 172 169 171 175 174 170
172 163 165 166 163 167 176 166 175 182 184 189 185 181 181 191 198 201 193 205 200 209 207 210 211 213 208 208 237 231 233 221 235 249 208 178 181 176 177 178 182 184 188
38 143 158 162 161 171 169 174 173 177 184 188 196 188 183 196 197 199 196 193 189 193 192 192 195 204 212 217 230 246 228 219 223 244 191 173 181 183 186 186 184 192 193
105 58 273 181 169 170 172 176 178 186 187 194 190 194 192 195 197 199 199 187 190 184 188 198 199 205 213 221 236 230 230 225 222 175 161 180 189 186 188 191 193 194 203
56 154 211 219 169 165 177 176 184 187 189 187 193 195 199 195 197 196 205 199 187 189 186 197 204 204 211 214 235 234 228 223 213 178 174 191 189 191 188 188 198 203 209
149 98 303 217 184 187 186 181 175 184 186 189 195 193 197 197 193 198 199 205 189 189 188 197 209 199 212 216 229 232 228 201 195 187 158 182 194 199 197 198 200 202 211
179 170 206 197 185 189 188 194 189 189 182 185 195 192 197 197 197 196 197 202 187 172 194 190 202 213 216 209 218 217 209 192 205 214 190 181 190 200 218 213 207 208 211
173 179 177 175 184 186 187 196 194 187 205 195 193 192 200 198 195 195 200 190 189 183 189 198 195 209 195 189 192 196 177 168 215 238 237 206 199 188 207 233 215 217 205
195 181 173 164 169 171 171 167 184 197 217 204 216 215 184 199 194 197 192 180 181 200 193 174 173 189 166 172 179 181 195 209 209 223 235 243 183 193 179 207 206 214 204
229 177 167 158 167 161 150 162 183 204 201 211 219 223 189 193 189 191 193 180 170 192 191 183 166 182 176 143 93 347 283 237 222 223 234 230 227 215 208 214 208 174 196
228 198 170 170 166 166 160 171 164 173 202 190 209 222 199 182 184 183 182 172 185 156 183 178 161 120 136 165 146 133 298 315 287 230 201 225 231 211 247 260 207 155 151
225 193 176 180 180 179 178 148 134 53 344 220 228 222 200 166 164 172 178 182 171 171 175 177 160 153 154 210 169 149 197 219 332 345 310 211 184 184 252 262 188 147 115
236 196 170 176 178 183 179 174 180 205 209 231 186 204 162 161 159 156 165 163 163 177 171 163 159 147 124 166 142 206 150 171 159 321 318 280 207 227 251 210 168 142 142
175 204 203 183 190 194 192 196 191 190 197 193 172 162 143 147 151 147 155 166 166 167 177 157 152 151 155 145 154 192 197 194 146 138 236 276 324 262 273 179 151 181 162
197 187 191 190 202 202 200 192 182 179 189 186 146 149 137 128 138 152 160 153 153 162 161 164 160 162 157 161 158 204 180 167 190 161 160 224 218 297 193 140 156 169 182